World > North America > United States > Ohio   City of Athens, Ohio

Hourly Athens, OH Regional Weather

Feedback E-mail the Weather

Latest News

Athens, OH Weather Maps

°F °C°F °C
Athens Weather Map
UTC Time: 5/25/2022, 22:28
Your Time:

Athens, OH Regional Weather

Expires:202205252300;;578167
ASUS41 KCLE 252212
RWRCLE
OHIO REGIONAL WEATHER ROUNDUP
NATIONAL WEATHER SERVICE WILMINGTON, OH
600 PM EDT WED MAY 25 2022

NOTE: "FAIR" INDICATES FEW OR NO CLOUDS BELOW 12,000 FEET WITH NO
SIGNIFICANT WEATHER AND/OR OBSTRUCTIONS TO VISIBILITY.


OHZ036-037-039>041-045>050-054>059-063>069-073>076-082>088-252300-
  CENTRAL AND SOUTHEAST OHIO
  
CITY           SKY/WX    TMP DP  RH WIND       PRES   REMARKS
COLUMBUS       PTSUNNY   81  66  60 SE12      30.01F                  
OSU AIRPORT    FAIR      81  64  56 SE14      30.00F                  
BOLTON FIELD   SUNNY     81  66  61 S14G21    30.00F                  
RICKENBACK AFB FAIR      81  65  57 SE12G17   30.00F                  
NEWARK         FAIR      82  62  50 SE10      30.03F                  
MARION         FAIR      78  62  57 SE18G25   30.01F                  
LANCASTER      FAIR      80  66  62 SE16      30.02F                  
ZANESVILLE     FAIR      79  64  60 SE14      30.06F                  
NEW PHILLY     PTSUNNY   79  60  52 SE10      30.08F                  
$$
  

SKY/WX - Weather  TMP - Temperature  DP - Dew Point  RH - Humidity
WIND - Wind Direction/Speed PRES - Barometric Pressure VSB - Visibility
WCI - Wind Chill Index E13G22 Wind - East Wind 13 mph/Gusts of 22 mph

Trending Headlines

Athens Radar Loop



Athens Quick Facts


National Two Day Weather Forecast


E-mail the Athens Weather Forecast

Voice your opinion or tell us about page issues...